"Pseudo-MPEC" for OCA1637

Created 2026 Apr 17 11:35:14 UT using Find_Orb

Click here for an explanation of pseudo-MPECs

 
 Astrometry: 
     OCA1637*KC2026 04 16.23988 14 57 14.31 -33 02 08.9    ~4GHZ 19.3 rqNEOCPX74
     OCA1637 KC2026 04 16.24904 14 57 11.00 -33 02 21.7    ~4GHZ 19.8 rqNEOCPX74
     OCA1637 KC2026 04 16.25783 14 57 07.84 -33 02 34.1    ~4GHZ 19.3 rqNEOCPX74

Station data:
(X74) Observatório Campo dos Amarais  (S21.394144 W50.505780)  Brazil.
   Observer L. S. Amaral. 0.3-m f/4 reflector + CCD.

Orbital elements:  OCA1637
   Perihelion 2026 Jan 28.294942 +/- 108 TT =  7:04:42.9 (JD 2461068.794942)
Epoch 2026 Apr 16.0 TT = JDT 2461146.5   Earth MOID: 0.0306      AutoNEOCP
M  17.850720670 +/- 80              (J2000 ecliptic)
n   0.229724049 +/- 0.34            Peri.   83.855552 +/- 70
a   2.640371728 +/- 2.61            Node    25.761314 +/- 60
e   0.75616523 +/- 0.23             Incl.   32.241659 +/- 43
P   4.29040                H 19.56  G  0.15   U 12.0  SR
q 0.643814411 +/- 0.519    Q 4.636929045 +/- 16
From 3 observations 2026 Apr. 16 (25.8 min); mean residual 0".04
Residuals in arcseconds: 
260416 X74  .03+  .03-    260416 X74  .06-  .05+    260416 X74  .03+  .03-    

Ephemerides (geocentric):
Date (UTC) HH   RA             Dec           delta  r     elong  mag " sig PA
---- --------  ------------   ------------  ------ ------ -----  --- --------
2026 04 17 12  14 49 57.239   -33 30 08.60  .46204 1.4284 152.0 19.6  22d  65
2026 04 17 13  14 49 42.986   -33 31 00.47  .46241 1.4289 152.1 19.6  22d  65
2026 04 17 14  14 49 28.746   -33 31 52.11  .46277 1.4294 152.1 19.6  22d  65
2026 04 17 15  14 49 14.521   -33 32 43.51  .46313 1.4298 152.2 19.6  22d  65
2026 04 17 16  14 49 00.309   -33 33 34.67  .46349 1.4303 152.2 19.6  22d  65
2026 04 17 17  14 48 46.112   -33 34 25.60  .46385 1.4308 152.3 19.6  22d  65
2026 04 17 18  14 48 31.929   -33 35 16.29  .46421 1.4313 152.3 19.6  22d  65
2026 04 17 19  14 48 17.760   -33 36 06.74  .46458 1.4318 152.4 19.6  22d  65
2026 04 17 20  14 48 03.605   -33 36 56.97  .46494 1.4323 152.4 19.6  22d  65
2026 04 17 21  14 47 49.464   -33 37 46.95  .46531 1.4328 152.5 19.6  23d  66
2026 04 17 22  14 47 35.338   -33 38 36.70  .46567 1.4333 152.5 19.6  24d  67
2026 04 17 23  14 47 21.226   -33 39 26.22  .46604 1.4338 152.6 19.7  26d  66
2026 04 18 00  14 47 07.129   -33 40 15.51  .46641 1.4342 152.6 19.7  26d  65
2026 04 18 01  14 46 53.045   -33 41 04.56  .46677 1.4347 152.7 19.7  26d  65
2026 04 18 02  14 46 38.977   -33 41 53.38  .46714 1.4352 152.7 19.7  26d  65
2026 04 18 03  14 46 24.923   -33 42 41.97  .46751 1.4357 152.8 19.7  27d  65
2026 04 18 04  14 46 10.883   -33 43 30.33  .46788 1.4362 152.8 19.7  27d  65
2026 04 18 05  14 45 56.858   -33 44 18.46  .46825 1.4367 152.9 19.7  27d  65
2026 04 18 06  14 45 42.848   -33 45 06.36  .46862 1.4372 152.9 19.7  27d  65
2026 04 18 07  14 45 28.852   -33 45 54.03  .46899 1.4377 153.0 19.7  27d  65
2026 04 18 08  14 45 14.871   -33 46 41.47  .46936 1.4382 153.0 19.7  28d  66
2026 04 18 09  14 45 00.905   -33 47 28.68  .46973 1.4387 153.1 19.7  28d  66
2026 04 18 10  14 44 46.954   -33 48 15.66  .47010 1.4391 153.1 19.7  29d  66
2026 04 18 11  14 44 33.017   -33 49 02.42  .47048 1.4396 153.2 19.7  29d  65
2026 04 18 12  14 44 19.095   -33 49 48.94  .47085 1.4401 153.2 19.7  30d  65
2026 04 18 13  14 44 05.188   -33 50 35.24  .47123 1.4406 153.2 19.7  30d  65
2026 04 18 14  14 43 51.297   -33 51 21.32  .47160 1.4411 153.3 19.7  30d  65
2026 04 18 15  14 43 37.420   -33 52 07.17  .47198 1.4416 153.3 19.7  30d  65
2026 04 18 16  14 43 23.558   -33 52 52.79  .47235 1.4421 153.4 19.7  30d  65
2026 04 18 17  14 43 09.711   -33 53 38.19  .47273 1.4426 153.4 19.7  30d  65
2026 04 18 18  14 42 55.879   -33 54 23.36  .47310 1.4430 153.5 19.7  30d  65
2026 04 18 19  14 42 42.062   -33 55 08.32  .47348 1.4435 153.5 19.7  30d  65
2026 04 18 20  14 42 28.260   -33 55 53.04  .47386 1.4440 153.6 19.7  30d  65
2026 04 18 21  14 42 14.474   -33 56 37.55  .47424 1.4445 153.6 19.7  30d  65
2026 04 18 22  14 42 00.703   -33 57 21.83  .47462 1.4450 153.7 19.7  31d  65
2026 04 18 23  14 41 46.947   -33 58 05.89  .47500 1.4455 153.7 19.7  31d  65
2026 04 19 00  14 41 33.206   -33 58 49.73  .47538 1.4460 153.8 19.7  31d  65
2026 04 19 01  14 41 19.481   -33 59 33.35  .47576 1.4465 153.8 19.7  31d  65
2026 04 19 02  14 41 05.771   -34 00 16.75  .47614 1.4470 153.8 19.7  31d  65
2026 04 19 03  14 40 52.076   -34 00 59.92  .47652 1.4474 153.9 19.7  31d  65
2026 04 19 04  14 40 38.397   -34 01 42.88  .47691 1.4479 153.9 19.7  31d  65
2026 04 19 05  14 40 24.733   -34 02 25.62  .47729 1.4484 154.0 19.7  31d  65
2026 04 19 06  14 40 11.085   -34 03 08.15  .47767 1.4489 154.0 19.7  31d  65
2026 04 19 07  14 39 57.452   -34 03 50.45  .47806 1.4494 154.1 19.7  31d  65
2026 04 19 08  14 39 43.834   -34 04 32.54  .47844 1.4499 154.1 19.7  31d  64
2026 04 19 09  14 39 30.233   -34 05 14.41  .47883 1.4504 154.1 19.7  31d  64
2026 04 19 10  14 39 16.647   -34 05 56.06  .47922 1.4509 154.2 19.7  31d  64
2026 04 19 11  14 39 03.076   -34 06 37.50  .47960 1.4513 154.2 19.7  31d  64